TimeEST,TemperatureF,Dew PointF,Humidity,Sea Level PressureIn,VisibilityMPH,Wind Direction,Wind SpeedMPH,Gust SpeedMPH,PrecipitationIn,Events,Conditions,WindDirDegrees,DateUTC
12:25 AM,24.1,13.5,64,30.04,-9999.0,Variable,4.6,13.8,N/A,,Unknown,0,2012-12-06 05:25:00
1:26 AM,23.0,13.6,67,30.06,-9999.0,Variable,4.6,-,0.00,,Unknown,0,2012-12-06 06:26:00
2:25 AM,22.1,14.7,73,30.11,-9999.0,Variable,6.9,18.4,N/A,,Unknown,0,2012-12-06 07:25:00
3:25 AM,21.2,12.6,69,30.14,-9999.0,Variable,4.6,16.1,N/A,,Unknown,0,2012-12-06 08:25:00
4:25 AM,19.0,10.0,68,30.17,-9999.0,Variable,5.8,15.0,N/A,,Unknown,0,2012-12-06 09:25:00
5:25 AM,17.6,9.9,72,30.21,-9999.0,Variable,5.8,13.8,N/A,,Unknown,0,2012-12-06 10:25:00
6:25 AM,17.1,9.7,73,30.25,-9999.0,Variable,4.6,11.5,N/A,,Unknown,0,2012-12-06 11:25:00
7:25 AM,16.7,9.5,73,30.27,-9999.0,Variable,4.6,-,N/A,,Unknown,0,2012-12-06 12:25:00
8:25 AM,17.2,9.7,72,30.30,-9999.0,Variable,2.3,11.5,N/A,,Unknown,0,2012-12-06 13:25:00
9:25 AM,19.4,9.1,64,30.31,-9999.0,Variable,3.5,11.5,N/A,,Unknown,0,2012-12-06 14:25:00
10:25 AM,22.8,9.5,57,30.30,-9999.0,Variable,4.6,-,N/A,,Unknown,0,2012-12-06 15:25:00
11:25 AM,23.9,9.7,55,30.29,-9999.0,Variable,5.8,15.0,N/A,,Unknown,0,2012-12-06 16:25:00
12:27 PM,25.7,10.0,52,30.29,-9999.0,Variable,4.6,13.8,N/A,,Unknown,0,2012-12-06 17:27:00
1:25 PM,27.1,10.4,49,30.29,-9999.0,Variable,4.6,13.8,N/A,,Unknown,0,2012-12-06 18:25:00
2:25 PM,27.5,9.7,47,30.29,-9999.0,Variable,2.3,-,N/A,,Unknown,0,2012-12-06 19:25:00
3:25 PM,25.7,9.3,50,30.30,-9999.0,Calm,Calm,-,N/A,,Unknown,0,2012-12-06 20:25:00
4:25 PM,21.7,11.5,65,30.30,-9999.0,Calm,Calm,-,N/A,,Unknown,0,2012-12-06 21:25:00
5:25 PM,19.8,11.1,69,30.31,-9999.0,Calm,Calm,-,0.00,,Unknown,0,2012-12-06 22:25:00
6:28 PM,16.5,12.2,83,30.29,-9999.0,Calm,Calm,-,0.01,,Unknown,0,2012-12-06 23:28:00
7:25 PM,14.7,11.1,86,30.29,-9999.0,Calm,Calm,-,N/A,,Unknown,0,2012-12-07 00:25:00
8:25 PM,13.6,11.1,90,30.30,-9999.0,Calm,Calm,-,0.00,,Unknown,0,2012-12-07 01:25:00
9:25 PM,12.6,10.2,90,30.30,-9999.0,Calm,Calm,-,N/A,,Unknown,0,2012-12-07 02:25:00
10:25 PM,12.7,10.8,92,30.31,-9999.0,Calm,Calm,-,N/A,,Unknown,0,2012-12-07 03:25:00
11:27 PM,12.6,10.4,91,30.30,-9999.0,Calm,Calm,-,N/A,,Unknown,0,2012-12-07 04:27:00